| time (UTC) | temp C | wind direction | speed KPH | gust KPH | rain 1hr cm | rain 24hr cm | rain mn cm | humidity % | barometer mb |
| 20260510193001 | 31 | 253 | 3.2 | 14.5 | 0.00 | 0.00 | 0.00 | 70 | 1014.7 |
| 20260510191601 | 31 | 99 | 4.8 | 14.5 | 0.00 | 0.00 | 0.00 | 71 | 1014.8 |
| 20260510190100 | 30 | 53 | 4.8 | 16.1 | 0.00 | 0.00 | 0.00 | 73 | 1014.7 |
| 20260510184557 | 31 | 219 | 3.2 | 12.9 | 0.00 | 0.00 | 0.00 | 72 | 1014.7 |
| 20260510183057 | 31 | 350 | 3.2 | 12.9 | 0.00 | 0.00 | 0.00 | 72 | 1015.0 |
| 20260510181559 | 31 | 77 | 3.2 | 14.5 | 0.00 | 0.00 | 0.00 | 69 | 1014.9 |
| 20260510174553 | 31 | 117 | 4.8 | 14.5 | 0.00 | 0.00 | 0.00 | 69 | 1015.1 |
| 20260510173053 | 32 | 219 | 3.2 | 11.3 | 0.00 | 0.00 | 0.00 | 69 | 1015.2 |
| 20260510171550 | 32 | 203 | 4.8 | 14.5 | 0.00 | 0.00 | 0.00 | 68 | 1015.4 |
| 20260510170053 | 32 | 53 | 4.8 | 9.7 | 0.00 | 0.00 | 0.00 | 65 | 1015.4 |
| 20260510164554 | 32 | 27 | 4.8 | 14.5 | 0.00 | 0.00 | 0.00 | 66 | 1015.5 |
| 20260510163045 | 32 | 47 | 3.2 | 12.9 | 0.00 | 0.00 | 0.00 | 65 | 1015.5 |
| 20260510161512 | 32 | 248 | 3.2 | 12.9 | 0.00 | 0.00 | 0.00 | 64 | 1015.5 |
| 20260510160008 | 31 | 181 | 3.2 | 8.0 | 0.00 | 0.00 | 0.00 | 66 | 1015.6 |
| 20260510154505 | 31 | 266 | 0.0 | 6.4 | 0.00 | 0.00 | 0.00 | 69 | 1015.6 |
| 20260510153004 | 31 | 99 | 3.2 | 11.3 | 0.00 | 0.00 | 0.00 | 66 | 1015.5 |
| 20260510151559 | 30 | 303 | 3.2 | 12.9 | 0.00 | 0.00 | 0.00 | 70 | 1015.4 |
| 20260510150058 | 30 | 108 | 1.6 | 6.4 | 0.00 | 0.00 | 0.00 | 69 | 1015.3 |
| 20260510144553 | 30 | 246 | 3.2 | 8.0 | 0.00 | 0.00 | 0.00 | 73 | 1015.4 |
| 20260510143053 | 29 | 233 | 1.6 | 19.3 | 0.00 | 0.00 | 0.00 | 77 | 1015.5 |
| 20260510141546 | 28 | 238 | 3.2 | 25.7 | 0.00 | 0.00 | 0.00 | 76 | 1015.3 |
| 20260510140045 | 28 | 96 | 4.8 | 19.3 | 0.00 | 0.00 | 0.00 | 77 | 1015.0 |
| 20260510133019 | 27 | 108 | 4.8 | 12.9 | 0.00 | 0.00 | 0.00 | 80 | 1015.2 |
| 20260510131515 | 26 | 97 | 1.6 | 19.3 | 0.00 | 0.00 | 0.00 | 82 | 1014.9 |
| 20260510130015 | 26 | 85 | 3.2 | 14.5 | 0.00 | 0.00 | 0.00 | 83 | 1014.9 |
| 20260510124511 | 25 | 95 | 4.8 | 12.9 | 0.00 | 0.00 | 0.00 | 84 | 1014.9 |
| 20260510123003 | 25 | 95 | 4.8 | 11.3 | 0.00 | 0.00 | 0.00 | 86 | 1014.8 |
| 20260510121600 | 24 | 86 | 3.2 | 9.7 | 0.00 | 0.00 | 0.00 | 88 | 1014.6 |
| 20260510120054 | 23 | 101 | 1.6 | 8.0 | 0.00 | 0.00 | 0.00 | 91 | 1014.3 |
| 20260510114548 | 22 | 83 | 3.2 | 12.9 | 0.00 | 0.00 | 0.00 | 91 | 1014.0 |
| 20260510113050 | 22 | 98 | 6.4 | 9.7 | 0.00 | 0.00 | 0.00 | 92 | 1013.9 |
| 20260510111559 | -17 | 0.0 | 0.0 | 0.00 | 0.00 | 0.00 | 1013.6 | ||
| 20260510110032 | -17 | 0.0 | 0.0 | 0.00 | 0.00 | 0.00 | 1013.4 | ||
| 20260510104538 | -17 | 0.0 | 0.0 | 0.00 | 0.00 | 0.00 | 1012.9 | ||
| 20260510103032 | -17 | 0.0 | 0.0 | 0.00 | 0.00 | 0.00 | 1013.0 | ||
| 20260510101520 | -17 | 0.0 | 0.0 | 0.00 | 0.00 | 0.00 | 1012.8 | ||
| 20260510100012 | -17 | 0.0 | 0.0 | 0.00 | 0.00 | 0.00 | 1012.7 | ||
| 20260510094508 | -17 | 0.0 | 0.0 | 0.00 | 0.00 | 0.00 | 1012.5 | ||
| 20260510093003 | -17 | 0.0 | 0.0 | 0.00 | 0.00 | 0.00 | 1012.4 | ||
| 20260510091605 | -17 | 0.0 | 0.0 | 0.00 | 0.00 | 0.00 | 1012.3 | ||
| 20260510084558 | 22 | 95 | 3.2 | 6.4 | 0.00 | 0.00 | 0.00 | 91 | 1012.1 |
| 20260510083052 | 22 | 99 | 3.2 | 8.0 | 0.00 | 0.00 | 0.00 | 91 | 1012.0 |
| 20260510081551 | 22 | 96 | 3.2 | 6.4 | 0.00 | 0.00 | 0.00 | 91 | 1011.8 |
| 20260510080057 | 22 | 96 | 3.2 | 8.0 | 0.00 | 0.00 | 0.00 | 91 | 1011.7 |
| 20260510074548 | 22 | 99 | 4.8 | 9.7 | 0.00 | 0.00 | 0.00 | 91 | 1011.8 |
| 20260510073047 | 22 | 95 | 6.4 | 11.3 | 0.00 | 0.00 | 0.00 | 92 | 1011.9 |
| 20260510071547 | 22 | 101 | 4.8 | 9.7 | 0.00 | 0.00 | 0.00 | 92 | 1012.0 |
| 20260510070048 | 22 | 95 | 3.2 | 9.7 | 0.00 | 0.00 | 0.00 | 92 | 1012.1 |
| 20260510064603 | 22 | 110 | 6.4 | 11.3 | 0.00 | 0.00 | 0.00 | 92 | 1012.4 |
| 20260510063047 | 22 | 94 | 1.6 | 6.4 | 0.00 | 0.00 | 0.00 | 91 | 1012.5 |
| 20260510061549 | 22 | 98 | 3.2 | 6.4 | 0.00 | 0.00 | 0.00 | 91 | 1012.6 |
| 20260510060042 | 22 | 98 | 0.0 | 4.8 | 0.00 | 0.00 | 0.00 | 90 | 1013.0 |
| 20260510054540 | 22 | 92 | 1.6 | 4.8 | 0.00 | 0.00 | 0.00 | 89 | 1013.2 |
| 20260510053039 | 22 | 103 | 0.0 | 3.2 | 0.00 | 0.00 | 0.00 | 89 | 1013.4 |
| 20260510051540 | 22 | 79 | 0.0 | 1.6 | 0.00 | 0.00 | 0.00 | 88 | 1013.6 |
| 20260510050039 | 22 | 79 | 0.0 | 1.6 | 0.00 | 0.00 | 0.00 | 88 | 1013.6 |
| 20260510044537 | 23 | 81 | 0.0 | 1.6 | 0.00 | 0.00 | 0.00 | 87 | 1013.7 |
| 20260510043036 | 23 | 81 | 0.0 | 1.6 | 0.00 | 0.00 | 0.00 | 86 | 1013.8 |
| 20260510041538 | 23 | 79 | 0.0 | 1.6 | 0.00 | 0.00 | 0.00 | 86 | 1014.0 |
| 20260510040033 | 23 | 79 | 0.0 | 0.0 | 0.00 | 0.00 | 0.00 | 85 | 1014.0 |
| 20260510034532 | 23 | 79 | 0.0 | 0.0 | 0.00 | 0.00 | 0.00 | 86 | 1014.1 |
| 20260510033030 | 23 | 79 | 0.0 | 0.0 | 0.00 | 0.00 | 0.00 | 85 | 1013.9 |
| 20260510031534 | 23 | 79 | 0.0 | 0.0 | 0.00 | 0.00 | 0.00 | 85 | 1013.8 |
| 20260510030025 | 23 | 79 | 0.0 | 1.6 | 0.00 | 0.00 | 0.00 | 85 | 1013.6 |
| 20260510024531 | 23 | 82 | 1.6 | 6.4 | 0.00 | 0.00 | 0.00 | 85 | 1013.6 |
| 20260510023023 | 23 | 70 | 0.0 | 1.6 | 0.00 | 0.00 | 0.00 | 85 | 1013.6 |
| 20260510021521 | 23 | 71 | 0.0 | 1.6 | 0.00 | 0.00 | 0.00 | 84 | 1013.3 |
| 20260510020017 | 23 | 77 | 0.0 | 3.2 | 0.00 | 0.00 | 0.00 | 83 | 1012.9 |
| 20260510014517 | 24 | 74 | 0.0 | 3.2 | 0.00 | 0.00 | 0.00 | 83 | 1012.9 |
| 20260510013020 | 24 | 9 | 0.0 | 0.0 | 0.00 | 0.00 | 0.00 | 82 | 1012.9 |
| 20260510011520 | 25 | 342 | 0.0 | 0.0 | 0.00 | 0.00 | 0.00 | 82 | 1012.6 |
| 20260510010012 | 25 | 302 | 0.0 | 0.0 | 0.00 | 0.00 | 0.00 | 83 | 1012.5 |
| 20260510004512 | 25 | 326 | 0.0 | 0.0 | 0.00 | 0.00 | 0.00 | 83 | 1012.2 |
| 20260510003011 | 26 | 326 | 0.0 | 0.0 | 0.00 | 0.00 | 0.00 | 82 | 1012.2 |
| 20260510001511 | 26 | 326 | 0.0 | 0.0 | 0.00 | 0.00 | 0.00 | 81 | 1012.2 |
| 20260510000010 | 26 | 326 | 0.0 | 0.0 | 0.00 | 0.00 | 0.00 | 81 | 1012.1 |
| 20260509234557 | 26 | 326 | 0.0 | 1.6 | 0.00 | 0.00 | 0.00 | 79 | 1011.8 |
| 20260509233048 | 26 | 333 | 0.0 | 4.8 | 0.00 | 0.00 | 0.00 | 78 | 1011.7 |
| 20260509231555 | 27 | 246 | 1.6 | 6.4 | 0.00 | 0.00 | 0.00 | 79 | 1011.7 |
| 20260509230036 | 27 | 290 | 1.6 | 8.0 | 0.00 | 0.00 | 0.00 | 78 | 1011.7 |
| 20260509224535 | 27 | 300 | 3.2 | 8.0 | 0.00 | 0.00 | 0.00 | 76 | 1011.6 |
| 20260509223037 | 27 | 227 | 1.6 | 8.0 | 0.00 | 0.00 | 0.00 | 75 | 1011.7 |
| 20260509223005 | 27 | 342 | 0.0 | 8.0 | 0.00 | 0.00 | 0.00 | 75 | 1011.7 |
| 20260509221533 | 28 | 58 | 3.2 | 11.3 | 0.00 | 0.00 | 0.00 | 74 | 1011.5 |
| 20260509220034 | 28 | 273 | 3.2 | 14.5 | 0.00 | 0.00 | 0.00 | 73 | 1011.4 |
| 20260509214533 | 28 | 276 | 0.0 | 11.3 | 0.00 | 0.00 | 0.00 | 71 | 1011.2 |
| 20260509213032 | 30 | 53 | 1.6 | 12.9 | 0.00 | 0.00 | 0.00 | 68 | 1011.0 |
| 20260509211528 | 30 | 293 | 1.6 | 14.5 | 0.00 | 0.00 | 0.00 | 66 | 1010.8 |
| 20260509210029 | 30 | 31 | 4.8 | 16.1 | 0.00 | 0.00 | 0.00 | 62 | 1010.7 |
| 20260509204530 | 31 | 50 | 4.8 | 14.5 | 0.00 | 0.00 | 0.00 | 59 | 1010.7 |
| 20260509203034 | 31 | 251 | 3.2 | 11.3 | 0.00 | 0.00 | 0.00 | 61 | 1010.6 |
| 20260509201523 | 31 | 240 | 4.8 | 11.3 | 0.00 | 0.00 | 0.00 | 59 | 1010.6 |
| 20260509200021 | 31 | 262 | 3.2 | 9.7 | 0.00 | 0.00 | 0.00 | 61 | 1010.7 |
| 20260509194520 | 31 | 218 | 4.8 | 14.5 | 0.00 | 0.00 | 0.00 | 61 | 1010.9 |